Tracking 30402 objects as of 12-May-2025
HD Live streaming from Space Station
objects crossing your sky now

MORELOS 2

Track MORELOS 2 now!
MORELOS 2 is classified as:


NORAD ID: 16274
Int'l Code: 1985-109B
Perigee: 35,971.1 km
Apogee: 36,014.9 km
Inclination: 14.8 °
Period: 1,446.3 minutes
Semi major axis: 42363 km
RCS: 7.6304 m2 (large)
Launch date: November 27, 1985
Source: Mexico (MEX)
Launch site: AIR FORCE EASTERN TEST RANGE (AFETR)
Your satellite tracking list
Your tracking list is empty




NASA's NSSDC Master Catalog

Two Line Element Set (TLE):
1 16274U 85109B   25131.77836625  .00000049  00000-0  00000-0 0  9992
2 16274  14.7538 359.7253 0005160 139.1658 215.1278  0.99565209 42354
Source of the keplerian elements: AFSPC